Albany, NY

4:43 AM EST on November 22, 2019 (GMT -0500)
Albany International

Weather History for KALB - September, 2019

Change the Weather History Date:

Sunday, September 15, 2019

  Actual Average Record
Temperature  
Mean Temperature 66 °F 62 °F  
Max Temperature 78 °F 73 °F 92 °F (1915)
Min Temperature 54 °F 52 °F 33 °F (1975)
Degree Days  
Heating Degree Days 0 4  
Month to date heating degree days 28 39  
Since 1 July heating degree days 30 62  
Cooling Degree Days 1 2  
Month to date cooling degree days 24 39  
Year to date cooling degree days 747 582  
Growing Degree Days 16 (Base 50)    
Moisture  
Dew Point 56 °F    
Average Humidity 68    
Maximum Humidity 93    
Minimum Humidity 42    
Precipitation  
Precipitation T in 0.10 in 2.76 in (1916)
Month to date precipitation 1.80 1.53  
Year to date precipitation 30.78 27.68  
Sea Level Pressure  
Sea Level Pressure 30.13 in    
Wind  
Wind Speed 6 mph (West)    
Max Wind Speed 16 mph    
Max Gust Speed 19 mph    
Visibility 9 miles    
Events Fog    
T = Trace of Precipitation, MM = Missing Value Source: NWS Daily Summary

Daily Weather History Graph

Daily Weather History Graph

Search for Another Location

Airport or City:

Astronomy

Sep. 15, 2019 Rise Set
Actual Time 6:34 AM EDT 7:05 PM EDT
Civil Twilight 6:06 AM EDT 7:33 PM EDT
Nautical Twilight 5:32 AM EDT 8:07 PM EDT
Astronomical Twilight 4:58 AM EDT 8:41 PM EDT
Moon 8:10 PM EDT (9/15) 7:42 AM EDT (9/15)
Length of Visible Light 13h 27m
Length of Day
12h 30m
Full, 98% of the Moon is Illuminated
Sep 15
Full
Sep 21
Last Quarter
Sep 28
New
Oct 5
First Quarter
Oct 13
Full

Hourly Weather History & Observations

Time (EDT) Temp. Dew Point Humidity Pressure Visibility Wind Dir Wind Speed Gust Speed Precip Events Conditions
12:51 AM 64.0 °F 60.1 °F 87% 30.16 in 10.0 mi Calm Calm - 0.02 in   Overcast
1:20 AM 63.0 °F 60.1 °F 90% 30.17 in 10.0 mi South 4.6 mph - N/A   Mostly Cloudy
1:51 AM 61.0 °F 57.9 °F 90% 30.16 in 10.0 mi South 3.5 mph - N/A   Mostly Cloudy
2:44 AM 60.1 °F 57.0 °F 90% 30.16 in 10.0 mi Calm Calm - N/A Fog Patches of Fog
2:51 AM 59.0 °F 57.0 °F 93% 30.16 in 8.0 mi Calm Calm - N/A Fog Patches of Fog
3:34 AM 59.0 °F 55.9 °F 90% 30.15 in 0.5 mi South 3.5 mph - N/A Fog Fog
3:51 AM 57.0 °F 55.0 °F 93% 30.16 in 0.5 mi Calm Calm - N/A Fog Fog
4:31 AM 57.0 °F 55.0 °F 93% 30.16 in 5.0 mi Calm Calm - N/A   Partly Cloudy
4:51 AM 57.0 °F 54.0 °F 89% 30.17 in 10.0 mi West 4.6 mph - N/A   Partly Cloudy
5:51 AM 55.9 °F 53.1 °F 90% 30.17 in 10.0 mi Calm Calm - N/A   Partly Cloudy
5:54 AM 55.9 °F 53.1 °F 90% 30.17 in 1.8 mi Calm Calm - N/A   Clear
6:02 AM 55.0 °F 53.1 °F 93% 30.17 in 10.0 mi Calm Calm - N/A Fog Shallow Fog
6:51 AM 55.9 °F 53.1 °F 90% 30.18 in 10.0 mi SSE 3.5 mph - N/A   Partly Cloudy
7:51 AM 61.0 °F 57.9 °F 90% 30.18 in 10.0 mi Calm Calm - N/A   Partly Cloudy
8:51 AM 64.9 °F 57.9 °F 78% 30.18 in 10.0 mi West 8.1 mph - N/A   Partly Cloudy
9:51 AM 66.9 °F 57.0 °F 70% 30.18 in 10.0 mi West 6.9 mph - N/A   Partly Cloudy
10:51 AM 70.0 °F 57.0 °F 63% 30.17 in 10.0 mi WNW 8.1 mph - N/A   Scattered Clouds
11:51 AM 72.0 °F 55.0 °F 55% 30.15 in 10.0 mi West 4.6 mph - N/A   Mostly Cloudy
12:51 PM 75.0 °F 55.0 °F 50% 30.13 in 10.0 mi NNW 4.6 mph - N/A   Mostly Cloudy
1:51 PM 75.0 °F 54.0 °F 48% 30.12 in 10.0 mi NW 8.1 mph - N/A   Mostly Cloudy
2:51 PM 78.1 °F 53.1 °F 42% 30.09 in 10.0 mi West 10.4 mph 19.6 mph N/A   Mostly Cloudy
3:51 PM 77.0 °F 53.1 °F 43% 30.08 in 10.0 mi West 9.2 mph - N/A   Mostly Cloudy
4:51 PM 75.0 °F 55.0 °F 50% 30.08 in 10.0 mi NW 8.1 mph - N/A   Mostly Cloudy
5:51 PM 73.0 °F 55.9 °F 55% 30.07 in 10.0 mi NNW 11.5 mph - N/A   Mostly Cloudy
6:51 PM 71.1 °F 55.9 °F 59% 30.07 in 10.0 mi WNW 5.8 mph - N/A   Mostly Cloudy
7:51 PM 68.0 °F 55.9 °F 65% 30.07 in 10.0 mi NW 3.5 mph - N/A   Mostly Cloudy
8:51 PM 69.1 °F 57.0 °F 65% 30.08 in 10.0 mi NW 8.1 mph - N/A   Overcast
9:51 PM 66.9 °F 59.0 °F 76% 30.08 in 10.0 mi WNW 6.9 mph - 0.00 in   Light Drizzle
10:51 PM 66.9 °F 57.9 °F 73% 30.08 in 10.0 mi WNW 6.9 mph - 0.00 in   Mostly Cloudy
11:51 PM 64.0 °F 57.9 °F 80% 30.08 in 10.0 mi West 8.1 mph - N/A   Mostly Cloudy